IRNSS-1I

Last updated on Aug. 5, 2020, 5:33 a.m. UTC

1 43286U 18035A   20217.80257866  .00000069  00000-0  00000+0 0  9998
2 43286  29.2463 108.6261 0018788 179.7988   9.3392  1.00276629  8586
UTC
Height (km)
Latitude
Longitude
Inclination
Orbital Period
UTC large
Height (km)
Speed (km/s)
/
Latitude / Longitude
Inclination (degrees)
Orbital Period (minutes)
Azimuth
Elevation
Range (km)
Doppler Factor
iOS Compass Heading
iOS Angle

Next 30 passes for location: Hong Kong

Rise time Rise Azimuth (degrees) Set time Set Azimuth (degrees) Duration Max altitude (degrees)

No matching passes for this satellites